Location: Unspecified
(0.0000°N, 0.0000°E)
Time: 22:38:55
(UTC+00:00)

ATLAS 5 CENTAUR R/B DEB - Pass Details

Date: 07 May 2025
Orbit: 8950 x 34203 km, 12.6° (Epoch: 13 May)

Event Time Altitude Azimuth Distance (km) Brightness Sun altitude
Rises 13:19:20 0° 257° (WSW) 14,980 ? 63.5°
Reaches altitude 10° 13:28:41 10° 257° (WSW) 14,671 ? 61.7°
Maximum altitude 16:12:46 77° 307° (NW) 27,296 ? 24.7°
Drops below altitude 10° 01:35:12 10° 102° (ESE) 13,098 ? -60.3°
Sets 01:43:35 0° 103° (ESE) 13,963 ? -58.6°
